King Salmon, AK

8:31 PM AKDT on July 24, 2017 (GMT -0800)
King Salmon

Weather History for PAKN - March, 2014

Change the Weather History Date:

Tuesday, March 11, 2014

  Actual Average Record
Temperature  
Mean Temperature 24 °F 23 °F  
Max Temperature 30 °F 32 °F 48 °F (1934)
Min Temperature 17 °F 14 °F -24 °F (2010)
Degree Days  
Heating Degree Days 41 42  
Month to date heating degree days 446 472  
Since 1 July heating degree days 6801 8092  
Cooling Degree Days 0 0  
Month to date cooling degree days 0 0  
Year to date cooling degree days 0 0  
Moisture  
Dew Point 21 °F    
Average Humidity 0    
Maximum Humidity 0    
Minimum Humidity 0    
Precipitation  
Precipitation 0.02 in 0.03 in 0.21 in (2009)
Month to date precipitation 0.12 0.26  
Year to date precipitation 1.93 2.04  
Snow  
Snow 0.30 in 0.20 in - ()
Month to date snowfall 1.3 2.4  
Since 1 July snowfall 28.0 37.9  
Snow Depth 1.00 in    
Sea Level Pressure  
Sea Level Pressure 29.01 in    
Wind  
Wind Speed 14 mph (West)    
Max Wind Speed 20 mph    
Max Gust Speed 24 mph    
Visibility 8 miles    
Events Snow    
T = Trace of Precipitation, MM = Missing Value Source: NWS Daily Summary

Daily Weather History Graph

Daily Weather History Graph

Search for Another Location

Airport or City:

Trip Planner

Search our weather history database for the weather conditions in past years. The results will help you decide how hot, cold, wet, or windy it might be!

Date:

Astronomy

Mar. 11, 2014 Rise Set
Actual Time 8:53 AM AKDT 8:20 PM AKDT
Civil Twilight 8:13 AM AKDT 9:00 PM AKDT
Nautical Twilight 7:27 AM AKDT 9:47 PM AKDT
Astronomical Twilight 6:38 AM AKDT 10:36 PM AKDT
Moon 3:20 PM AKDT (3/11) 6:43 AM AKDT (3/11)
Length of Visible Light 12h 46m
Length of Day
11h 27m
Waxing Gibbous, 79% of the Moon is Illuminated
Mar 11
Waxing Gibbous
Mar 16
Full
Mar 23
Last Quarter
Mar 30
New
Apr 7
First Quarter

Hourly Weather History & Observations

Time (AKDT) Temp. Windchill Dew Point Humidity Pressure Visibility Wind Dir Wind Speed Gust Speed Precip Events Conditions
12:47 AM 23.0 °F 14.7 °F 21.2 °F 93% 28.84 in 10.0 mi North 6.9 mph - 0.00 in   Mostly Cloudy
12:54 AM 21.9 °F 13.4 °F 21.0 °F 96% 28.85 in 10.0 mi North 6.9 mph - 0.00 in   Mostly Cloudy
1:48 AM 21.2 °F 13.6 °F 21.2 °F 100% 28.85 in 10.0 mi NNW 5.8 mph - N/A   Overcast
1:54 AM 21.9 °F 12.5 °F 19.9 °F 92% 28.86 in 10.0 mi NNW 8.1 mph - N/A   Overcast
2:10 AM 21.2 °F 11.7 °F 19.4 °F 93% 28.86 in 10.0 mi North 8.1 mph - N/A   Overcast
2:54 AM 21.9 °F 13.4 °F 19.9 °F 92% 28.87 in 4.0 mi North 6.9 mph - 0.00 in Snow Light Snow
3:04 AM 21.2 °F 12.6 °F 19.4 °F 93% 28.87 in 4.0 mi North 6.9 mph - 0.01 in Snow Light Snow
3:41 AM 21.2 °F 10.9 °F 19.4 °F 93% 28.87 in 7.0 mi North 9.2 mph - 0.01 in Snow Light Snow
3:54 AM 21.9 °F 13.4 °F 19.9 °F 92% 28.88 in 8.0 mi North 6.9 mph - 0.01 in   Overcast
4:25 AM 21.2 °F 12.6 °F 19.4 °F 93% 28.87 in 10.0 mi North 6.9 mph - N/A   Overcast
4:54 AM 21.0 °F 11.4 °F 19.9 °F 96% 28.88 in 10.0 mi North 8.1 mph - N/A   Overcast
5:54 AM 21.9 °F 17.2 °F 19.9 °F 92% 28.89 in 10.0 mi North 3.5 mph - N/A   Overcast
6:54 AM 21.0 °F 16.2 °F 19.9 °F 96% 28.91 in 10.0 mi NW 3.5 mph - N/A   Overcast
7:32 AM 21.2 °F 14.9 °F 19.4 °F 93% 28.91 in 10.0 mi NW 4.6 mph - N/A   Overcast
7:54 AM 21.9 °F 15.7 °F 19.9 °F 92% 28.92 in 10.0 mi North 4.6 mph - N/A   Overcast
8:39 AM 21.2 °F 16.4 °F 19.4 °F 93% 28.92 in 10.0 mi North 3.5 mph - N/A   Overcast
8:54 AM 21.9 °F - 19.9 °F 92% 28.93 in 10.0 mi Calm Calm - N/A   Overcast
9:42 AM 23.0 °F - 19.4 °F 86% 28.94 in 10.0 mi Calm Calm - N/A   Overcast
9:54 AM 23.0 °F - 19.9 °F 88% 28.95 in 10.0 mi Calm Calm - N/A   Overcast
10:54 AM 24.1 °F - 21.9 °F 91% 28.96 in 10.0 mi Calm Calm - N/A   Overcast
11:54 AM 26.1 °F 20.5 °F 25.0 °F 96% 28.99 in 6.0 mi SSW 4.6 mph - N/A   Overcast
12:02 PM 26.6 °F 20.0 °F 26.6 °F 100% 28.99 in 1.0 mi SSW 5.8 mph - N/A   Overcast
12:11 PM 26.6 °F 19.1 °F 26.6 °F 100% 28.99 in 1.0 mi South 6.9 mph - N/A   Overcast
12:26 PM 26.6 °F 17.5 °F 26.6 °F 100% 29.00 in 1.0 mi South 9.2 mph - N/A   Overcast
12:54 PM 28.0 °F 20.0 °F 26.1 °F 92% 29.02 in 8.0 mi SSW 8.1 mph - N/A   Overcast
1:30 PM 30.2 °F 20.8 °F 26.6 °F 86% 29.03 in 8.0 mi WSW 11.5 mph - 0.00 in Snow Light Snow
1:54 PM 30.0 °F 20.0 °F 26.1 °F 85% 29.04 in 9.0 mi WSW 12.7 mph - 0.00 in   Overcast
2:06 PM 30.2 °F 20.8 °F 26.6 °F 86% 29.04 in 10.0 mi SW 11.5 mph - N/A   Overcast
2:27 PM 30.2 °F 22.6 °F 26.6 °F 86% 29.05 in 10.0 mi SW 8.1 mph 19.6 mph N/A   Overcast
2:54 PM 30.0 °F 19.1 °F 27.0 °F 88% 29.06 in 10.0 mi SSW 15.0 mph 21.9 mph N/A   Overcast
3:39 PM 28.4 °F 15.4 °F 26.6 °F 93% 29.07 in 2.0 mi SSW 19.6 mph 24.2 mph 0.00 in Snow Light Snow
3:54 PM 28.0 °F 15.7 °F 25.0 °F 88% 29.08 in 5.0 mi SSW 17.3 mph - 0.00 in   Overcast
4:54 PM 26.1 °F 14.0 °F 21.9 °F 84% 29.11 in 6.0 mi SW 15.0 mph - 0.00 in Snow Light Snow
5:01 PM 26.6 °F 17.5 °F 21.2 °F 80% 29.11 in 9.0 mi SW 9.2 mph 21.9 mph 0.00 in   Overcast
5:32 PM 26.6 °F 16.2 °F 21.2 °F 80% 29.12 in 3.0 mi SW 11.5 mph - 0.00 in Snow Light Snow
5:46 PM 26.6 °F 16.8 °F 23.0 °F 86% 29.12 in 2.0 mi SW 10.4 mph - 0.00 in Snow Light Snow
5:54 PM 25.0 °F 12.6 °F 21.9 °F 88% 29.13 in 2.0 mi SW 15.0 mph 19.6 mph 0.01 in Snow Light Snow
6:54 PM 24.1 °F 13.1 °F 19.9 °F 84% 29.15 in 3.0 mi WSW 11.5 mph - 0.00 in Snow Light Snow
7:54 PM 21.9 °F 9.8 °F 18.0 °F 85% 29.18 in 8.0 mi WSW 12.7 mph - 0.00 in   Overcast
8:54 PM 21.0 °F 9.3 °F 17.1 °F 85% 29.21 in 7.0 mi SW 11.5 mph - 0.00 in Snow Light Snow
9:54 PM 19.0 °F 4.5 °F 14.0 °F 81% 29.24 in 9.0 mi SW 16.1 mph - 0.00 in   Overcast
10:54 PM 18.0 °F 5.4 °F 14.0 °F 84% 29.27 in 10.0 mi SW 11.5 mph 19.6 mph 0.00 in   Overcast
11:54 PM 17.1 °F 3.0 °F 12.9 °F 84% 29.29 in 7.0 mi WSW 13.8 mph - 0.00 in Snow Light Snow